| time (UTC) | temp F | wind direction | speed MPH | gust MPH | rain 1hr in | rain 24hr in | rain mn in | humidity % | barometer mb |
| 20260906125225 | 58 | 250 | 0.0 | 3.0 | 0.00 | 0.00 | 0.00 | 69 | 1012.8 |
| 20260906124723 | 58 | 256 | 0.0 | 2.0 | 0.00 | 0.00 | 0.00 | 69 | 1012.8 |
| 20260906124222 | 58 | 256 | 1.0 | 4.0 | 0.00 | 0.00 | 0.00 | 69 | 1012.8 |
| 20260906123718 | 58 | 256 | 2.0 | 7.0 | 0.00 | 0.00 | 0.00 | 69 | 1012.8 |
| 20260906123217 | 58 | 258 | 3.0 | 7.0 | 0.00 | 0.00 | 0.00 | 69 | 1012.8 |
| 20260906122715 | 58 | 233 | 3.0 | 7.0 | 0.00 | 0.00 | 0.00 | 69 | 1012.9 |
| 20260906122209 | 58 | 240 | 3.0 | 7.0 | 0.00 | 0.00 | 0.00 | 69 | 1012.8 |
| 20260906121710 | 58 | 242 | 1.0 | 4.0 | 0.00 | 0.00 | 0.00 | 68 | 1012.8 |
| 20260906121211 | 58 | 244 | 1.0 | 3.0 | 0.00 | 0.00 | 0.00 | 67 | 1012.8 |
| 20260906120922 | 59 | 244 | 1.0 | 1.0 | 0.00 | 0.00 | 0.00 | 67 | 1012.7 |
| 20260906092410 | 61 | 288 | 1.0 | 3.0 | 0.00 | 0.00 | 0.00 | 61 | 1012.7 |
| 20260906091910 | 61 | 288 | 1.0 | 3.0 | 0.00 | 0.00 | 0.00 | 61 | 1012.7 |
| 20260906091637 | 61 | 288 | 0.0 | 2.0 | 0.00 | 0.00 | 0.00 | 61 | 1012.8 |
| 20260906090605 | 61 | 288 | 0.0 | 2.0 | 0.00 | 0.00 | 0.00 | 62 | 1012.8 |
| 20260906090322 | 60 | 289 | 0.0 | 1.0 | 0.00 | 0.00 | 0.00 | 61 | 1012.8 |
| 20260906085602 | 61 | 289 | 0.0 | 2.0 | 0.00 | 0.00 | 0.00 | 61 | 1012.8 |
| 20260906085103 | 61 | 289 | 1.0 | 2.0 | 0.00 | 0.00 | 0.00 | 61 | 1012.8 |
| 20260906084556 | 61 | 289 | 1.0 | 2.0 | 0.00 | 0.00 | 0.00 | 60 | 1012.9 |
| 20260906084055 | 62 | 289 | 0.0 | 2.0 | 0.00 | 0.00 | 0.00 | 60 | 1012.9 |
| 20260906083554 | 61 | 292 | 0.0 | 2.0 | 0.00 | 0.00 | 0.00 | 60 | 1012.9 |
| 20260906083321 | 61 | 292 | 0.0 | 2.0 | 0.00 | 0.00 | 0.00 | 60 | 1013.0 |
| 20260906082556 | 61 | 292 | 1.0 | 2.0 | 0.00 | 0.00 | 0.00 | 59 | 1012.9 |
| 20260906082248 | 62 | 292 | 1.0 | 2.0 | 0.00 | 0.00 | 0.00 | 58 | 1012.9 |
| 20260906081508 | 62 | 292 | 1.0 | 3.0 | 0.00 | 0.00 | 0.00 | 58 | 1013.0 |
| 20260906081009 | 62 | 292 | 1.0 | 3.0 | 0.00 | 0.00 | 0.00 | 58 | 1013.0 |
| 20260906080509 | 62 | 292 | 0.0 | 2.0 | 0.00 | 0.00 | 0.00 | 57 | 1012.9 |
| 20260906080203 | 62 | 292 | 0.0 | 2.0 | 0.00 | 0.00 | 0.00 | 57 | 1012.9 |
| 20260906075411 | 62 | 292 | 0.0 | 2.0 | 0.00 | 0.00 | 0.00 | 56 | 1012.9 |
| 20260906074844 | 62 | 292 | 1.0 | 2.0 | 0.00 | 0.00 | 0.00 | 56 | 1012.9 |
| 20260906074329 | 63 | 292 | 0.0 | 2.0 | 0.00 | 0.00 | 0.00 | 56 | 1012.9 |
| 20260906073830 | 63 | 292 | 0.0 | 2.0 | 0.00 | 0.00 | 0.00 | 54 | 1012.9 |
| 20260906073533 | 63 | 292 | 0.0 | 1.0 | 0.00 | 0.00 | 0.00 | 53 | 1012.8 |
| 20260906072738 | 64 | 292 | 0.0 | 2.0 | 0.00 | 0.00 | 0.00 | 53 | 1012.8 |
| 20260906072213 | 64 | 292 | 1.0 | 4.0 | 0.00 | 0.00 | 0.00 | 52 | 1012.8 |
| 20260906071648 | 65 | 292 | 1.0 | 4.0 | 0.00 | 0.00 | 0.00 | 52 | 1012.8 |
| 20260906071123 | 65 | 292 | 1.0 | 4.0 | 0.00 | 0.00 | 0.00 | 52 | 1012.8 |
| 20260906070557 | 66 | 286 | 1.0 | 2.0 | 0.00 | 0.00 | 0.00 | 52 | 1012.7 |
| 20260906070037 | 66 | 286 | 1.0 | 6.0 | 0.00 | 0.00 | 0.00 | 51 | 1012.6 |
| 20260906065539 | 66 | 286 | 3.0 | 6.0 | 0.00 | 0.00 | 0.00 | 51 | 1012.6 |
| 20260906065010 | 66 | 277 | 3.0 | 9.0 | 0.00 | 0.00 | 0.00 | 50 | 1012.6 |
| 20260906064456 | 67 | 263 | 4.0 | 9.0 | 0.00 | 0.00 | 0.00 | 50 | 1012.6 |
| 20260906063954 | 67 | 269 | 4.0 | 10.0 | 0.00 | 0.00 | 0.00 | 50 | 1012.5 |
| 20260906063443 | 67 | 244 | 4.0 | 10.0 | 0.00 | 0.00 | 0.00 | 49 | 1012.5 |
| 20260906063401 | 67 | 260 | 5.0 | 9.0 | 0.00 | 0.00 | 0.00 | 50 | 1012.6 |
| 20260906062349 | 67 | 268 | 6.0 | 9.0 | 0.00 | 0.00 | 0.00 | 49 | 1012.6 |
| 20260906061829 | 67 | 273 | 5.0 | 9.0 | 0.00 | 0.00 | 0.00 | 49 | 1012.5 |
| 20260906061538 | 67 | 261 | 6.0 | 11.0 | 0.00 | 0.00 | 0.00 | 49 | 1012.5 |
| 20260906060744 | 67 | 279 | 6.0 | 11.0 | 0.00 | 0.00 | 0.00 | 49 | 1012.5 |
| 20260906060222 | 67 | 299 | 4.0 | 9.0 | 0.00 | 0.00 | 0.00 | 49 | 1012.5 |
| 20260906055700 | 67 | 269 | 4.0 | 7.0 | 0.00 | 0.00 | 0.00 | 48 | 1012.7 |
| 20260906055202 | 67 | 0.0 | 0.0 | 0.00 | 0.00 | 0.00 | 48 | ||
| 20260906042222 | 69 | 0.0 | 0.0 | 0.00 | 0.00 | 0.00 | 43 | ||
| 20260905150115 | 56 | 0.0 | 0.0 | 0.00 | 0.00 | 0.00 | 81 |